Weather History for CWZG - March, 2013

Change the Weather History Date:

Thursday, March 7, 2013

  Actual Average Record
Temperature  
Mean Temperature 24 °F -  
Max Temperature 31 °F - - ()
Min Temperature 17 °F - - ()
Degree Days  
Heating Degree Days 41    
Moisture  
Dew Point 16 °F    
Average Humidity 77    
Maximum Humidity 90    
Minimum Humidity 53    
Precipitation  
Precipitation 0.06 in - - ()
Sea Level Pressure  
Sea Level Pressure 30.02 in    
Wind  
Wind Speed 3 mph ()    
Max Wind Speed 5 mph    
Max Gust Speed -    
T = Trace of Precipitation, MM = Missing Value Source: Averaged Metar Reports

Daily Weather History Graph

Daily Weather History Graph

Search for Another Location

Airport or City:

Trip Planner

Search our weather history database for the weather conditions in past years. The results will help you decide how hot, cold, wet, or windy it might be!

Date:

Astronomy

Mar. 07, 2013 Rise Set
Actual Time 7:13 AM MST 6:34 PM MST
Civil Twilight 6:40 AM MST 7:07 PM MST
Nautical Twilight 6:01 AM MST 7:45 PM MST
Astronomical Twilight 5:22 AM MST 8:24 PM MST
Moon 4:40 AM MST (3/7) 2:03 PM MST (3/7)
Length of Visible Light 12h 27m
Length of Day
11h 20m
Waning Crescent, 19% of the Moon is Illuminated
Mar 7
Waning Crescent
Mar 11
New
Mar 19
First Quarter
Mar 27
Full
Apr 2
Last Quarter

Hourly Weather History & Observations

Time (MST) Temp. Windchill Dew Point Humidity Pressure Visibility Wind Dir Wind Speed Gust Speed Precip Events Conditions
12:00 AM 20.3 °F 13.8 °F 16.2 °F 84% 29.92 in - NE 4.6 mph - N/A   Unknown
1:00 AM 20.1 °F 15.2 °F 16.9 °F 87% 29.91 in - NE 3.5 mph - N/A   Unknown
2:00 AM 19.0 °F - 16.0 °F 88% 29.93 in - ENE 2.3 mph - N/A   Unknown
3:00 AM 19.0 °F 13.9 °F 15.8 °F 87% 29.94 in - ENE 3.5 mph - N/A   Unknown
4:00 AM 18.0 °F 12.7 °F 14.5 °F 86% 29.96 in - NE 3.5 mph - N/A   Unknown
5:00 AM 17.8 °F - 14.9 °F 88% 29.98 in - SE 1.2 mph - N/A   Unknown
6:00 AM 17.8 °F - 15.3 °F 90% 30.00 in - East 2.3 mph - N/A   Unknown
7:00 AM 17.6 °F 12.3 °F 14.7 °F 88% 30.01 in - ENE 3.5 mph - 0.01 in   Unknown
8:00 AM 17.1 °F - 13.5 °F 86% 30.04 in - ENE 2.3 mph - N/A   Unknown
9:00 AM 17.8 °F 12.5 °F 13.3 °F 83% 30.05 in - ENE 3.5 mph - 0.04 in   Unknown
10:00 AM 19.9 °F - 13.5 °F 76% 30.05 in - East 2.3 mph - 0.01 in   Unknown
11:00 AM 22.6 °F - 13.3 °F 67% 30.05 in - ESE 1.2 mph - N/A   Unknown
12:00 PM 24.8 °F 20.5 °F 14.2 °F 64% 30.05 in - SE 3.5 mph - N/A   Unknown
1:00 PM 26.6 °F - 13.6 °F 58% 30.04 in - East 1.2 mph - N/A   Unknown
2:00 PM 29.8 °F - 14.4 °F 53% 30.03 in - SW 1.2 mph - N/A   Unknown
3:00 PM 30.2 °F 26.7 °F 18.0 °F 60% 30.02 in - South 3.5 mph - N/A   Unknown
4:00 PM 31.6 °F 28.3 °F 18.9 °F 59% 30.02 in - South 3.5 mph - N/A   Unknown
5:00 PM 31.6 °F - 21.0 °F 65% 30.02 in - SE 2.3 mph - N/A   Unknown
6:00 PM 28.9 °F - 21.2 °F 73% 30.04 in - ESE 1.2 mph - N/A   Unknown
7:00 PM 25.3 °F 21.1 °F 18.9 °F 76% 30.08 in - NE 3.5 mph - N/A   Unknown
8:00 PM 23.2 °F 18.7 °F 17.4 °F 79% 30.10 in - East 3.5 mph - N/A   Unknown
9:00 PM 20.1 °F - 15.1 °F 81% 30.11 in - East 2.3 mph - N/A   Unknown
10:00 PM 19.6 °F - 14.9 °F 82% 30.11 in - East 2.3 mph - N/A   Unknown
11:00 PM 19.2 °F - 14.7 °F 83% 30.10 in - ENE 1.2 mph - N/A   Unknown